SCP
0 0 0 0 0 0 -0 -0 -0 0 -0 0 0 0 0 0 0 0 0 0 0 0 0 0 0 0 0 0 0 0 0 0 0 -0 0 0 0 0 0 0 0 0 -0
0 0 0 0 0 0 0 -0 -0 -0 -0 0 0 0 0 0 0 0 0 0 0 0 0 0 0 0 0 0 -0 0 0 0 0 0 0 -0 0 0 0 0 0 -0 0
0 0 0 0 0 0 -0 0 0 -0 0 0 0 0 0 0 0 0 0 0 0 0 0 0 0 0 0 0 0 -0 0 0 0 -0 -0 -0 -0 0 0 0 0 0 0
0 0 0 0 0 0 0 0 0 -0 -0 0 0 0 0 -0 0 0 0 0 0 0 0 0 0 0 0 0 0 0 0 0 0 -0 0 -0 -0 -0 -0 -0 -0 0 0
0 0 0 0 0 0 0 0 -0 0 0 0 0 0 0 0 0 0 0 0 0 0 0 0 0 -0 0 0 0 0 0 0 0 -0 -0 -0 -0 -0 -0 -0 -0 0 0
0 0 0 0 0 -0 -0 -0 -0 -0 0 -0 0 0 0 0 0 0 0 0 0 0 0 0 0 -0 0 0 0 0 0 0 0 0 -0 0 -0 -0 -0 -0 0 -0 0
-0 0 0 -0 0 0 0 0 0 0 -0 -0 0 0 0 0 0 0 0 0 0 0 0 0 0 0 -0 -0 0 0 0 -0 0 -0 0 0 -0 -0 -0 -0 -0 -0 -0
0 0 0 0 0 0 0 0 0 0 0 -0 -0 0 0 0 0 0 0 0 0 0 0 0 -0 -0 -0 -0 -0 0 0 -0 0 0 -0 0 -0 0 -0 -0 -0 -0 -0
0 0 0 0 0 0 0 0 0 0 0 0 0 0 0 0 0 0 0 0 0 0 -0 0 -0 -0 -0 -0 -0 -0 -0 0 0 0 0 -0 0 0 0 -0 -0 -0 -0
0 0 -0 -0 0 0 0 -0 -0 0 0 0 0 0 0 -0 0 0 0 0 0 0 -0 -0 -0 -0 -0 -0 -0 -0 -0 -0 -0 -0 0 0 0 -0 0 0 -0 -0 -0
0 0 0 0 0 0 0 0 -0 -0 -0 0 0 0 0 0 0 0 0 0 0 0 0 0 0 0 -0 -0 -0 -0 -0 -0 0 0 0 0 0 -0 0 0 -0 -0 -0
-0 0 0 0 0 0 0 0 0 0 -0 -0 0 0 0 0 0 0 0 0 0 0 0 0 0 -0 0 0 0 0 -0 -0 -0 0 0 0 0 0 0 0 0 0 0
-0 -0 0 0 0 0 0 0 0 0 0 0 0 0 0 0 0 0 0 0 0 0 0 0 0 0 0 0 0 0 0 0 0 0 0 0 0 0 0 0 0 0 0
-0 -0 -0 0 0 0 0 0 0 0 0 0 0 0 0 0 0 0 0 0 0 0 0 0 0 0 0 0 0 0 0 0 0 0 0 0 0 0 0 0 0 0 0
-0 0 -0 -0 0 0 0 0 0 0 0 0 0 0 0 0 0 0 0 0 0 0 0 1 0 0 0 0 0 0 0 0 0 0 0 0 0 0 0 0 0 0 0
-0 0 0 -0 0 0 0 0 0 0 0 0 0 0 0 1 1 1 1 1 1 1 1 1 1 1 0 0 0 0 0 0 0 0 0 0 0 0 0 0 0 0 0
0 0 0 0 0 -0 -0 -0 0 0 0 0 0 0 0 0 0 1 0 1 1 1 1 1 0 0 0 0 0 0 0 0 0 0 0 0 0 0 0 0 0 0 0
0 0 0 0 0 0 0 0 0 0 0 0 0 0 0 0 0 0 0 1 0 0 0 0 0 0 0 0 0 0 0 0 0 0 0 0 0 0 0 0 0 0 0
0 0 0 0 0 0 0 0 0 0 0 0 0 0 0 0 0 0 0 0 0 0 0 0 0 0 0 0 0 0 0 0 0 0 0 0 0 0 0 0 0 0 0
0 0 0 0 0 0 0 0 0 0 0 0 0 0 0 0 0 0 0 0 0 0 0 0 0 0 0 0 0 0 0 0 0 0 0 0 0 0 0 0 0 0 0
0 0 0 0 0 0 0 0 0 0 0 0 0 0 0 0 0 0 0 0 0 0 0 0 0 0 0 0 0 0 0 0 0 0 0 0 0 0 0 0 0 0 0
0 0 0 0 0 0 0 0 0 0 0 0 0 0 0 0 0 0 0 0 0 0 0 0 0 0 0 0 0 -0 0 0 0 0 0 0 0 0 0 0 0 0 0
0 0 0 0 0 0 0 0 0 0 0 0 0 0 0 0 0 0 0 0 0 0 0 0 0 0 0 0 0 0 0 0 0 0 0 0 0 0 0 0 0 0 0
0 0 0 0 0 0 0 0 0 0 0 0 0 0 0 0 0 0 0 0 0 0 0 0 0 0 0 0 0 0 0 0 0 0 0 0 0 0 0 0 0 0 0
0 0 0 0 0 0 0 0 0 0 0 0 0 0 0 0 0 0 0 0 0 0 0 0 0 0 0 0 0 0 0 0 0 0 0 0 0 0 0 0 0 0 0
0 0 0 0 0 0 0 0 0 0 0 0 0 0 0 0 0 0 0 0 0 0 0 0 0 0 0 0 0 0 0 0 0 0 0 0 0 0 0 0 0 0 0
Wind_Speed_500mb
31 31 34 34 29 29 41 40 35 33 35 32 27 24 21 16 16 13 18 8 10 14 8 6 3 3 5 8 9 9 11 13 14 17 19 16 14 13 13 13 16 17 3
34 35 38 40 36 31 37 39 36 31 36 32 24 24 20 15 19 18 16 10 13 13 9 5 4 2 6 9 9 10 11 14 15 20 20 11 13 17 16 18 10 20 7
43 41 42 46 42 39 35 38 39 33 34 32 27 24 20 17 22 18 15 11 12 14 10 6 3 2 5 8 8 11 9 12 15 18 18 11 10 20 14 17 10 10 6
46 42 43 50 49 42 36 34 37 40 36 35 28 26 28 25 24 15 11 9 10 12 15 8 5 4 4 6 8 10 9 10 16 18 16 13 16 8 8 15 17 13 11
55 55 50 50 49 47 42 38 36 38 42 39 32 27 27 26 21 21 16 12 13 12 12 13 10 8 7 6 6 8 9 9 13 17 18 14 15 13 12 11 8 20 22
53 54 53 47 51 51 47 44 38 35 37 40 38 30 25 29 23 22 21 16 13 16 12 12 14 13 11 10 9 7 8 11 15 18 14 14 11 7 9 10 12 12 7
53 51 54 61 57 55 51 47 45 42 41 44 42 32 32 30 26 20 22 22 19 19 18 17 16 15 10 11 12 12 11 12 10 10 11 11 8 4 8 13 13 13 13
52 56 59 66 63 57 54 51 48 47 45 46 44 36 34 36 32 27 25 25 21 22 20 20 20 19 15 16 16 16 12 13 13 11 9 8 6 8 11 9 11 7 10
54 61 62 67 64 59 56 57 51 46 48 45 44 40 38 36 38 33 26 25 23 22 24 24 22 21 25 22 21 21 20 18 15 13 11 10 9 10 11 12 10 8 11
53 62 59 62 65 59 53 52 52 47 45 47 43 39 38 39 37 36 32 29 27 25 27 28 30 28 23 24 23 22 23 21 21 18 16 14 17 19 18 17 15 14 14
69 65 65 72 61 61 56 54 50 49 47 46 43 39 35 41 40 39 35 33 30 28 28 27 27 27 29 29 29 27 26 25 22 23 24 23 23 22 21 18 18 18 15
44 55 63 70 72 68 61 58 54 51 49 46 42 39 34 37 42 41 37 31 30 31 28 30 35 32 28 35 38 37 29 32 24 23 24 22 19 14 17 15 15 17 19
33 46 45 61 62 54 61 61 58 57 51 49 45 41 37 36 40 39 38 35 32 32 33 32 38 37 35 32 36 37 36 30 26 24 26 26 22 19 18 16 16 17 16
26 37 49 61 62 62 55 42 62 54 53 51 50 46 41 34 33 35 33 33 31 32 31 30 31 33 33 32 31 33 33 34 36 30 30 32 31 26 26 23 20 14 13
8 22 34 39 49 62 64 65 61 58 53 43 53 53 47 39 32 33 33 32 32 35 31 27 29 30 29 30 31 33 36 38 36 36 38 31 32 26 24 26 22 19 17
16 10 23 33 41 49 57 59 66 64 56 58 53 48 45 42 34 27 28 33 32 33 31 29 26 27 30 31 34 35 41 39 40 38 35 35 34 35 33 26 24 23 21
27 16 12 16 27 33 38 47 53 58 56 52 48 53 54 49 33 29 29 32 34 33 33 32 30 25 27 28 28 30 35 43 42 41 38 36 37 31 32 27 26 27 26
27 27 21 15 11 13 17 20 24 30 39 44 50 52 48 51 43 45 33 28 33 39 36 31 29 26 29 31 31 29 25 32 38 40 36 36 38 30 22 25 28 33 28
21 16 21 18 13 13 13 11 14 15 18 21 25 29 29 29 26 29 23 23 24 32 31 22 18 19 20 22 28 29 27 21 29 38 42 40 41 38 23 25 26 31 29
12 12 14 14 16 16 15 16 12 7 7 17 21 19 13 20 20 27 29 14 19 27 26 21 17 23 29 31 31 29 29 27 21 26 29 28 32 25 24 27 29 29 29
16 16 12 11 13 18 16 10 8 12 10 13 21 14 12 12 15 22 22 27 32 41 43 46 42 42 45 41 32 29 29 25 32 28 32 26 27 25 23 29 26 23 22
14 15 13 16 17 16 9 13 12 10 13 14 17 10 7 11 8 9 15 19 15 15 20 18 19 18 16 17 24 24 25 31 35 24 22 26 27 25 22 17 16 17 22
10 13 11 16 18 16 12 7 7 7 7 7 10 10 8 6 5 5 5 5 5 2 1 2 8 10 11 12 14 24 28 29 31 37 36 38 41 35 25 20 20 23 24
9 11 11 13 13 15 14 14 14 10 9 6 8 10 12 13 13 17 12 10 8 5 1 3 3 5 6 9 10 12 10 9 15 19 22 21 17 14 18 24 24 20 16
13 12 11 11 11 11 9 10 12 13 11 10 10 11 10 8 7 7 6 7 7 4 2 4 7 6 9 9 9 8 9 8 6 2 5 17 19 17 19 20 21 21 18
14 12 9 9 11 8 7 9 13 16 14 11 10 9 8 6 5 5 3 6 8 5 7 6 8 8 10 9 10 8 9 10 8 12 21 19 14 19 18 12 7 9 14
Wind_Direction_500mb
197 207 203 195 194 200 195 190 190 192 192 188 187 185 175 167 162 163 170 162 162 165 146 97 105 20 348 354 10 17 16 8 357 348 333 322 322 338 344 343 346 359 259
205 203 209 202 196 194 199 197 195 190 188 189 185 187 180 184 176 157 159 179 169 164 158 164 91 347 335 335 343 346 358 343 346 351 351 335 330 341 323 346 357 35 39
207 203 208 206 200 198 202 200 196 190 187 192 193 196 207 187 174 165 166 171 178 189 189 196 174 332 325 315 314 318 334 340 339 343 356 350 337 349 19 23 344 341 27
214 211 204 206 206 203 200 204 200 201 202 199 208 212 198 193 185 189 192 199 194 199 200 190 200 232 295 312 326 333 321 323 322 329 340 356 0 357 356 10 30 68 73
213 212 210 206 208 207 201 202 204 204 208 219 216 208 211 208 221 215 216 216 214 219 223 231 239 260 278 296 337 8 10 358 350 331 323 325 346 356 24 32 57 89 90
216 215 215 209 210 210 206 205 205 206 204 200 205 209 221 210 222 225 221 217 235 243 246 239 242 252 269 270 274 302 319 330 349 355 7 340 316 348 41 38 33 84 67
212 212 209 213 213 213 210 208 209 207 204 206 210 223 222 215 220 216 219 229 254 246 254 256 263 259 268 276 268 274 288 298 316 343 3 18 31 58 33 28 18 53 58
210 209 211 213 214 215 215 213 211 213 211 215 221 228 227 224 223 223 235 237 249 239 246 258 267 263 265 284 280 267 283 284 291 294 315 341 7 358 341 16 23 1 8
211 211 211 212 214 213 218 217 217 216 217 222 227 233 231 227 226 233 241 237 249 245 247 255 256 265 266 269 280 266 267 276 272 276 278 292 314 323 324 319 336 340 327
219 213 212 212 214 213 215 219 220 218 219 220 227 233 235 230 228 234 246 250 242 250 256 259 255 257 261 257 270 270 266 273 269 263 266 282 292 294 292 292 292 292 290
221 217 219 220 225 217 216 218 218 220 221 223 227 231 235 231 235 243 245 244 242 247 250 256 244 255 256 256 262 271 266 264 270 265 266 271 280 276 275 281 284 286 282
216 221 222 222 219 224 221 221 223 224 225 224 226 232 234 235 238 243 245 241 238 243 254 251 243 253 265 253 259 264 263 262 266 275 271 272 278 273 269 275 289 281 274
211 211 209 217 222 226 228 226 231 233 231 232 229 232 232 235 237 243 246 245 244 243 244 247 245 250 261 266 262 258 264 247 266 270 262 260 262 267 271 266 285 289 284
214 212 221 227 222 220 214 222 234 235 235 237 236 234 233 236 237 240 242 242 245 242 242 249 244 246 259 261 256 264 253 253 258 259 271 262 268 269 269 272 272 264 282
138 206 216 216 225 227 227 229 240 237 229 231 238 237 236 235 233 236 238 240 248 247 248 250 247 244 252 252 262 266 263 265 261 264 270 274 262 273 270 265 275 260 272
86 151 213 224 230 231 235 229 229 234 233 236 240 236 246 238 235 235 243 246 246 244 243 253 259 252 255 260 259 266 272 268 265 267 268 265 268 267 266 274 270 276 269
84 91 140 193 217 232 239 240 237 237 238 237 234 232 229 226 234 234 243 239 244 245 245 251 254 260 262 265 274 278 273 261 266 265 267 269 270 271 258 260 270 267 261
82 92 93 109 149 186 200 221 232 240 246 247 240 230 220 230 239 239 255 254 240 238 238 249 256 257 259 263 267 271 272 261 261 268 266 270 268 252 256 257 264 271 260
97 99 103 96 101 127 134 147 205 225 222 224 225 214 219 226 229 212 214 227 233 237 239 229 234 252 258 279 268 263 266 280 251 243 249 262 261 251 242 256 258 264 262
101 122 92 94 107 113 122 115 111 113 223 236 225 223 198 215 216 230 223 221 249 255 258 257 270 279 274 282 281 284 282 280 268 239 241 244 258 243 238 267 257 257 261
93 84 84 83 102 101 112 119 116 105 130 196 191 185 201 199 240 241 258 282 273 262 265 273 271 259 262 273 278 278 283 275 260 245 241 240 236 248 254 251 254 250 257
106 95 76 91 92 93 99 144 144 132 139 150 171 199 235 253 223 229 241 254 261 247 244 247 263 271 281 279 271 265 279 284 262 237 225 222 230 237 226 225 219 219 204
104 106 102 95 104 101 92 97 118 102 94 130 148 155 163 166 168 179 190 179 141 133 195 317 327 326 327 327 315 270 266 247 244 245 245 240 236 222 215 219 202 203 196
133 127 119 117 113 106 100 102 105 108 114 107 112 119 107 113 109 115 127 129 129 129 72 84 76 4 3 13 20 18 3 315 261 225 218 214 202 193 193 183 178 180 190
152 154 143 128 123 110 111 119 122 117 106 109 118 127 139 126 148 145 168 165 152 122 97 71 68 45 30 22 12 20 43 44 61 43 170 156 159 159 148 145 141 122 87
153 169 173 152 146 159 155 138 126 116 109 111 108 110 113 116 112 118 145 200 206 193 178 136 103 79 60 31 35 52 83 89 100 143 155 153 157 154 153 160 205 262 289
Wind_Speed_850mb
31 31 34 34 29 29 41 40 35 33 35 32 27 24 21 16 16 13 18 8 10 14 8 6 3 3 5 8 9 9 11 13 14 17 19 16 14 13 13 13 16 17 3
34 35 38 40 36 31 37 39 36 31 36 32 24 24 20 15 19 18 16 10 13 13 9 5 4 2 6 9 9 10 11 14 15 20 20 11 13 17 16 18 10 20 7
43 41 42 46 42 39 35 38 39 33 34 32 27 24 20 17 22 18 15 11 12 14 10 6 3 2 5 8 8 11 9 12 15 18 18 11 10 20 14 17 10 10 6
46 42 43 50 49 42 36 34 37 40 36 35 28 26 28 25 24 15 11 9 10 12 15 8 5 4 4 6 8 10 9 10 16 18 16 13 16 8 8 15 17 13 11
55 55 50 50 49 47 42 38 36 38 42 39 32 27 27 26 21 21 16 12 13 12 12 13 10 8 7 6 6 8 9 9 13 17 18 14 15 13 12 11 8 20 22
53 54 53 47 51 51 47 44 38 35 37 40 38 30 25 29 23 22 21 16 13 16 12 12 14 13 11 10 9 7 8 11 15 18 14 14 11 7 9 10 12 12 7
53 51 54 61 57 55 51 47 45 42 41 44 42 32 32 30 26 20 22 22 19 19 18 17 16 15 10 11 12 12 11 12 10 10 11 11 8 4 8 13 13 13 13
52 56 59 66 63 57 54 51 48 47 45 46 44 36 34 36 32 27 25 25 21 22 20 20 20 19 15 16 16 16 12 13 13 11 9 8 6 8 11 9 11 7 10
54 61 62 67 64 59 56 57 51 46 48 45 44 40 38 36 38 33 26 25 23 22 24 24 22 21 25 22 21 21 20 18 15 13 11 10 9 10 11 12 10 8 11
53 62 59 62 65 59 53 52 52 47 45 47 43 39 38 39 37 36 32 29 27 25 27 28 30 28 23 24 23 22 23 21 21 18 16 14 17 19 18 17 15 14 14
69 65 65 72 61 61 56 54 50 49 47 46 43 39 35 41 40 39 35 33 30 28 28 27 27 27 29 29 29 27 26 25 22 23 24 23 23 22 21 18 18 18 15
44 55 63 70 72 68 61 58 54 51 49 46 42 39 34 37 42 41 37 31 30 31 28 30 35 32 28 35 38 37 29 32 24 23 24 22 19 14 17 15 15 17 19
33 46 45 61 62 54 61 61 58 57 51 49 45 41 37 36 40 39 38 35 32 32 33 32 38 37 35 32 36 37 36 30 26 24 26 26 22 19 18 16 16 17 16
26 37 49 61 62 62 55 42 62 54 53 51 50 46 41 34 33 35 33 33 31 32 31 30 31 33 33 32 31 33 33 34 36 30 30 32 31 26 26 23 20 14 13
8 22 34 39 49 62 64 65 61 58 53 43 53 53 47 39 32 33 33 32 32 35 31 27 29 30 29 30 31 33 36 38 36 36 38 31 32 26 24 26 22 19 17
16 10 23 33 41 49 57 59 66 64 56 58 53 48 45 42 34 27 28 33 32 33 31 29 26 27 30 31 34 35 41 39 40 38 35 35 34 35 33 26 24 23 21
27 16 12 16 27 33 38 47 53 58 56 52 48 53 54 49 33 29 29 32 34 33 33 32 30 25 27 28 28 30 35 43 42 41 38 36 37 31 32 27 26 27 26
27 27 21 15 11 13 17 20 24 30 39 44 50 52 48 51 43 45 33 28 33 39 36 31 29 26 29 31 31 29 25 32 38 40 36 36 38 30 22 25 28 33 28
21 16 21 18 13 13 13 11 14 15 18 21 25 29 29 29 26 29 23 23 24 32 31 22 18 19 20 22 28 29 27 21 29 38 42 40 41 38 23 25 26 31 29
12 12 14 14 16 16 15 16 12 7 7 17 21 19 13 20 20 27 29 14 19 27 26 21 17 23 29 31 31 29 29 27 21 26 29 28 32 25 24 27 29 29 29
16 16 12 11 13 18 16 10 8 12 10 13 21 14 12 12 15 22 22 27 32 41 43 46 42 42 45 41 32 29 29 25 32 28 32 26 27 25 23 29 26 23 22
14 15 13 16 17 16 9 13 12 10 13 14 17 10 7 11 8 9 15 19 15 15 20 18 19 18 16 17 24 24 25 31 35 24 22 26 27 25 22 17 16 17 22
10 13 11 16 18 16 12 7 7 7 7 7 10 10 8 6 5 5 5 5 5 2 1 2 8 10 11 12 14 24 28 29 31 37 36 38 41 35 25 20 20 23 24
9 11 11 13 13 15 14 14 14 10 9 6 8 10 12 13 13 17 12 10 8 5 1 3 3 5 6 9 10 12 10 9 15 19 22 21 17 14 18 24 24 20 16
13 12 11 11 11 11 9 10 12 13 11 10 10 11 10 8 7 7 6 7 7 4 2 4 7 6 9 9 9 8 9 8 6 2 5 17 19 17 19 20 21 21 18
14 12 9 9 11 8 7 9 13 16 14 11 10 9 8 6 5 5 3 6 8 5 7 6 8 8 10 9 10 8 9 10 8 12 21 19 14 19 18 12 7 9 14
Wind_Direction_850mb
197 207 203 195 194 200 195 190 190 192 192 188 187 185 175 167 162 163 170 162 162 165 146 97 105 20 348 354 10 17 16 8 357 348 333 322 322 338 344 343 346 359 259
205 203 209 202 196 194 199 197 195 190 188 189 185 187 180 184 176 157 159 179 169 164 158 164 91 347 335 335 343 346 358 343 346 351 351 335 330 341 323 346 357 35 39
207 203 208 206 200 198 202 200 196 190 187 192 193 196 207 187 174 165 166 171 178 189 189 196 174 332 325 315 314 318 334 340 339 343 356 350 337 349 19 23 344 341 27
214 211 204 206 206 203 200 204 200 201 202 199 208 212 198 193 185 189 192 199 194 199 200 190 200 232 295 312 326 333 321 323 322 329 340 356 0 357 356 10 30 68 73
213 212 210 206 208 207 201 202 204 204 208 219 216 208 211 208 221 215 216 216 214 219 223 231 239 260 278 296 337 8 10 358 350 331 323 325 346 356 24 32 57 89 90
216 215 215 209 210 210 206 205 205 206 204 200 205 209 221 210 222 225 221 217 235 243 246 239 242 252 269 270 274 302 319 330 349 355 7 340 316 348 41 38 33 84 67
212 212 209 213 213 213 210 208 209 207 204 206 210 223 222 215 220 216 219 229 254 246 254 256 263 259 268 276 268 274 288 298 316 343 3 18 31 58 33 28 18 53 58
210 209 211 213 214 215 215 213 211 213 211 215 221 228 227 224 223 223 235 237 249 239 246 258 267 263 265 284 280 267 283 284 291 294 315 341 7 358 341 16 23 1 8
211 211 211 212 214 213 218 217 217 216 217 222 227 233 231 227 226 233 241 237 249 245 247 255 256 265 266 269 280 266 267 276 272 276 278 292 314 323 324 319 336 340 327
219 213 212 212 214 213 215 219 220 218 219 220 227 233 235 230 228 234 246 250 242 250 256 259 255 257 261 257 270 270 266 273 269 263 266 282 292 294 292 292 292 292 290
221 217 219 220 225 217 216 218 218 220 221 223 227 231 235 231 235 243 245 244 242 247 250 256 244 255 256 256 262 271 266 264 270 265 266 271 280 276 275 281 284 286 282
216 221 222 222 219 224 221 221 223 224 225 224 226 232 234 235 238 243 245 241 238 243 254 251 243 253 265 253 259 264 263 262 266 275 271 272 278 273 269 275 289 281 274
211 211 209 217 222 226 228 226 231 233 231 232 229 232 232 235 237 243 246 245 244 243 244 247 245 250 261 266 262 258 264 247 266 270 262 260 262 267 271 266 285 289 284
214 212 221 227 222 220 214 222 234 235 235 237 236 234 233 236 237 240 242 242 245 242 242 249 244 246 259 261 256 264 253 253 258 259 271 262 268 269 269 272 272 264 282
138 206 216 216 225 227 227 229 240 237 229 231 238 237 236 235 233 236 238 240 248 247 248 250 247 244 252 252 262 266 263 265 261 264 270 274 262 273 270 265 275 260 272
86 151 213 224 230 231 235 229 229 234 233 236 240 236 246 238 235 235 243 246 246 244 243 253 259 252 255 260 259 266 272 268 265 267 268 265 268 267 266 274 270 276 269
84 91 140 193 217 232 239 240 237 237 238 237 234 232 229 226 234 234 243 239 244 245 245 251 254 260 262 265 274 278 273 261 266 265 267 269 270 271 258 260 270 267 261
82 92 93 109 149 186 200 221 232 240 246 247 240 230 220 230 239 239 255 254 240 238 238 249 256 257 259 263 267 271 272 261 261 268 266 270 268 252 256 257 264 271 260
97 99 103 96 101 127 134 147 205 225 222 224 225 214 219 226 229 212 214 227 233 237 239 229 234 252 258 279 268 263 266 280 251 243 249 262 261 251 242 256 258 264 262
101 122 92 94 107 113 122 115 111 113 223 236 225 223 198 215 216 230 223 221 249 255 258 257 270 279 274 282 281 284 282 280 268 239 241 244 258 243 238 267 257 257 261
93 84 84 83 102 101 112 119 116 105 130 196 191 185 201 199 240 241 258 282 273 262 265 273 271 259 262 273 278 278 283 275 260 245 241 240 236 248 254 251 254 250 257
106 95 76 91 92 93 99 144 144 132 139 150 171 199 235 253 223 229 241 254 261 247 244 247 263 271 281 279 271 265 279 284 262 237 225 222 230 237 226 225 219 219 204
104 106 102 95 104 101 92 97 118 102 94 130 148 155 163 166 168 179 190 179 141 133 195 317 327 326 327 327 315 270 266 247 244 245 245 240 236 222 215 219 202 203 196
133 127 119 117 113 106 100 102 105 108 114 107 112 119 107 113 109 115 127 129 129 129 72 84 76 4 3 13 20 18 3 315 261 225 218 214 202 193 193 183 178 180 190
152 154 143 128 123 110 111 119 122 117 106 109 118 127 139 126 148 145 168 165 152 122 97 71 68 45 30 22 12 20 43 44 61 43 170 156 159 159 148 145 141 122 87
153 169 173 152 146 159 155 138 126 116 109 111 108 110 113 116 112 118 145 200 206 193 178 136 103 79 60 31 35 52 83 89 100 143 155 153 157 154 153 160 205 262 289